Location: Newark
(54.2500°N, 9.1833°E)
Time: 20:14:18
(UTC+00:00)

A-11 Canister half - Pass Details

Date: 10 December 2019
Orbit: 1517 x 1683 km, 47.2° (Epoch: 23 January)

Event Time Altitude Azimuth Distance (km) Brightness Sun altitude
Rises 18:18:57 0° 285° (WNW) 4,891 12.8 -27.5°
Reaches altitude 10° 18:22:55 10° 272° (W) 3,920 12.1 -28.1°
Maximum altitude 18:30:07 23° 226° (SW) 3,029 10.9 -29.2°
Drops below altitude 10° 18:37:23 10° 179° (S) 3,939 11.1 -30.2°
Sets 18:41:25 0° 166° (SSE) 4,920 11.5 -30.8°
